Miscellaneous Local Product
Issued by NWS North Platte, NE

Home | Current Version | Previous Version | Graphics & Text | Print | Product List | Glossary Off
Versions: 1 2 3 4 5 6 7 8 9 10 11 12 13 14 15 16 17 18 19 20 21 22 23 24 25 26 27 28 29 30 31 32 33 34 35 36 37 38 39 40 41 42 43 44 45 46 47 48 49 50

000
AXUS43 KLBF 301410
MISLBF


WESTERN AND NORTH CENTRAL NEBRASKA HOURLY WEATHER ROUNDUP
NATIONAL WEATHER SERVICE NORTH PLATTE NE
900 AM CDT THU JUL 30 2015

***STATIONS NOT REPORTING VARIABLES SUCH AS SKY/WEATHER OR
PRESSURE ARE PROVIDED BY THE NEBRASKA DEPARTMENT OF
ROADS...RAWS...AND APRS NETWORKS...AND ARE NOT UNDER
NATIONAL WEATHER SERVICE QUALITY CONTROL***

...OBSERVATIONS IN AND NEAR THE EASTERN PANHANDLE OF NEBRASKA...

CITY           SKY/WX    TMP DP  RH WIND       PRES   REMARKS
PINE RIDGE     SUNNY     64  51  62 W5        30.27R
CHADRON        SUNNY     61  52  72 W3        30.28R
ALLIANCE       SUNNY     67  54  63 S6        30.29R
SIDNEY         SUNNY     69  60  73 SW12      30.32R
BIG SPRINGS      N/A     67  59  75 CALM        N/A
$$

...OBSERVATIONS IN NORTH CENTRAL NEBRASKA...

CITY           SKY/WX    TMP DP  RH WIND       PRES   REMARKS
VALENTINE      SUNNY     70  54  56 SW8       30.21F
THEDFORD       SUNNY     72  56  55 SW12      30.26S
AINSWORTH      SUNNY     71  56  59 SW7       30.23S
O`NEILL        MOSUNNY   70  58  66 W7        30.24R
ORD            SUNNY     71  59  65 W6        30.22R
BROKEN BOW     SUNNY     70  60  70 W5        30.25R
SPRINGVIEW       N/A     72  60  66 CALM        N/A
CHAMBERS         N/A     76  57  51 NW3         N/A
EWING            N/A     69  61  77 SW3         N/A
$$

...OBSERVATIONS IN SOUTHWEST NEBRASKA AND FAR NORTHEAST COLORADO...

CITY           SKY/WX    TMP DP  RH WIND       PRES   REMARKS
WRAY           FAIR      70  62  76 S8        30.29S
HOLYOKE        FAIR      66  61  82 S8        30.29S
IMPERIAL       SUNNY     67  55  65 CALM      30.28R
OGALLALA       SUNNY     65  56  75 SW6       30.28S
NORTH PLATTE   SUNNY     68  58  70 CALM      30.27R
MCCOOK         SUNNY     68  60  75 CALM      30.27R
LEXINGTON      SUNNY     71  63  75 S7        30.26S
PAXTON           N/A     61  57  87 CALM        N/A
BRADY            N/A     67  60  77 CALM        N/A
CALLAWAY         N/A     69  62  79 SW12        N/A
$$

...NORTH PLATTE AREA...

CITY           SKY/WX    TMP DP  RH WIND       PRES   REMARKS
AIRPORT        SUNNY     68  58  70 CALM      30.27R
DOWNTOWN         N/A     70  60  71 CALM        N/A
SANDRIDGE        N/A     68  60  75 CALM        N/A
HILLCREST        N/A     67  58  73 SW3         N/A
$$

...SOME WEATHER OBSERVATIONS FROM AROUND THE REGION...

CITY           SKY/WX    TMP DP  RH WIND       PRES   REMARKS
DENVER         MOSUNNY   68  49  50 W9        30.35R
LARAMIE        SUNNY     55  39  54 S7        30.49R
CHEYENNE       SUNNY     66  46  48 W8        30.39R
SCOTTSBLUFF    SUNNY     67  54  63 NE5       30.30R
RAPID CITY     SUNNY     68  47  46 W8        30.25R
PIERRE         SUNNY     68  54  60 CALM      30.15R
WINNER         FAIR      71  54  54 W5        30.19S
SIOUX FALLS    MOSUNNY   71  58  63 SW7       30.14R
OMAHA          MOSUNNY   74  60  61 SW3       30.20R
GRAND ISLAND   SUNNY     74  61  63 SW12      30.23S
KANSAS CITY    PTSUNNY   76  66  71 CALM      30.22R
WICHITA        TSTM      70  68  93 W6        30.25R FOG
HAYS           CLOUDY    72  59  64 E8        30.27R
LIBERAL        CLOUDY    72  64  78 N6        30.27R
GOODLAND       SUNNY     69  64  84 S9        30.30R
$$



USA.gov is the U.S. government's official web portal to all federal, state and local government web resources and services.